Location: Waco, TX
(31.5480°N, 97.1670°W)
Time: 07:34:04
(UTC-05:00)

ISS - Pass Details

Date: 27 September 2022
Orbit: 414 x 417 km, 51.6° (Epoch: 01 October)

Event Time Altitude Azimuth Distance (km) Brightness Sun altitude
Rises 22:56:13 0° 322° (NW) 2,358 - -45.1°
Reaches altitude 10° 22:58:24 10° 330° (NNW) 1,493 - -45.5°
Maximum altitude 23:01:35 39° 41° (NE) 635 - -46.1°
Drops below altitude 10° 23:04:44 10° 113° (ESE) 1,485 - -46.6°
Sets 23:06:54 0° 121° (ESE) 2,345 - -47.0°
